Location: Marcé
(47.5801°N, 0.3280°W)
Time: 09:54:41
(UTC+01:00)

Vanguard 3 - Pass Details

Date: 11 December 2021
Orbit: 508 x 3260 km, 33.3° (Epoch: 24 January)

Event Time Altitude Azimuth Distance (km) Brightness Sun altitude
Rises 23:42:41 0° 183° (S) 5,530 - -61.6°
Reaches altitude 10° 23:48:00 10° 165° (SSE) 5,029 - -62.1°
Maximum altitude 23:56:29 17° 131° (SE) 5,050 - -62.9°
Drops below altitude 10° 00:06:26 10° 99° (E) 6,093 - -63.6°
Exits shadow 00:11:20 - 88° (E) 6,816 11.7 -64.0°
Sets 00:13:59 0° 83° (E) 7,232 11.9 -64.2°
